HVDC transfer

From www.emi.ea.govt.nz provided by the Electricity Authority (New Zealand)
Run at: 20240505212627

Parameters
Date range,22 Aug 2019 - 22 Aug 2019
Time scale,Trading period
Show,Average flow (MW)

Period start,Period end,Trading period,Direction,Energy transfer (GWh),Peak flow (MW),Average flow (MW)
22/08/2019 00:00:00,22/08/2019 00:30:00,1,Southward at Benmore,-0.037,-75,-75
22/08/2019 00:30:00,22/08/2019 01:00:00,2,Southward at Benmore,-0.042,-84,-84
22/08/2019 01:00:00,22/08/2019 01:30:00,3,Southward at Benmore,-0.060,-120,-120
22/08/2019 01:30:00,22/08/2019 02:00:00,4,Southward at Benmore,-0.064,-128,-128
22/08/2019 02:00:00,22/08/2019 02:30:00,5,Southward at Benmore,-0.063,-127,-127
22/08/2019 02:30:00,22/08/2019 03:00:00,6,Southward at Benmore,-0.066,-132,-132
22/08/2019 03:00:00,22/08/2019 03:30:00,7,Southward at Benmore,-0.081,-162,-162
22/08/2019 03:30:00,22/08/2019 04:00:00,8,Southward at Benmore,-0.074,-148,-148
22/08/2019 04:00:00,22/08/2019 04:30:00,9,Southward at Benmore,-0.068,-136,-136
22/08/2019 04:30:00,22/08/2019 05:00:00,10,Southward at Benmore,-0.074,-148,-148
22/08/2019 05:00:00,22/08/2019 05:30:00,11,Southward at Benmore,-0.021,-43,-43
22/08/2019 05:30:00,22/08/2019 06:00:00,12,Northward at Haywards,0.007,14,14
22/08/2019 06:00:00,22/08/2019 06:30:00,13,Northward at Haywards,0.097,193,193
22/08/2019 06:30:00,22/08/2019 07:00:00,14,Northward at Haywards,0.140,280,280
22/08/2019 07:00:00,22/08/2019 07:30:00,15,Northward at Haywards,0.183,366,366
22/08/2019 07:30:00,22/08/2019 08:00:00,16,Northward at Haywards,0.203,405,405
22/08/2019 08:00:00,22/08/2019 08:30:00,17,Northward at Haywards,0.204,407,407
22/08/2019 08:30:00,22/08/2019 09:00:00,18,Northward at Haywards,0.170,339,339
22/08/2019 09:00:00,22/08/2019 09:30:00,19,Northward at Haywards,0.160,320,320
22/08/2019 09:30:00,22/08/2019 10:00:00,20,Northward at Haywards,0.124,247,247
22/08/2019 10:00:00,22/08/2019 10:30:00,21,Northward at Haywards,0.115,229,229
22/08/2019 10:30:00,22/08/2019 11:00:00,22,Northward at Haywards,0.116,231,231
22/08/2019 11:00:00,22/08/2019 11:30:00,23,Northward at Haywards,0.111,222,222
22/08/2019 11:30:00,22/08/2019 12:00:00,24,Northward at Haywards,0.106,211,211
22/08/2019 12:00:00,22/08/2019 12:30:00,25,Northward at Haywards,0.128,256,256
22/08/2019 12:30:00,22/08/2019 13:00:00,26,Northward at Haywards,0.128,255,255
22/08/2019 13:00:00,22/08/2019 13:30:00,27,Northward at Haywards,0.115,229,229
22/08/2019 13:30:00,22/08/2019 14:00:00,28,Northward at Haywards,0.132,263,263
22/08/2019 14:00:00,22/08/2019 14:30:00,29,Northward at Haywards,0.119,238,238
22/08/2019 14:30:00,22/08/2019 15:00:00,30,Northward at Haywards,0.114,228,228
22/08/2019 15:00:00,22/08/2019 15:30:00,31,Northward at Haywards,0.116,231,231
22/08/2019 15:30:00,22/08/2019 16:00:00,32,Northward at Haywards,0.152,303,303
22/08/2019 16:00:00,22/08/2019 16:30:00,33,Northward at Haywards,0.204,407,407
22/08/2019 16:30:00,22/08/2019 17:00:00,34,Northward at Haywards,0.214,427,427
22/08/2019 17:00:00,22/08/2019 17:30:00,35,Northward at Haywards,0.243,485,485
22/08/2019 17:30:00,22/08/2019 18:00:00,36,Northward at Haywards,0.279,558,558
22/08/2019 18:00:00,22/08/2019 18:30:00,37,Northward at Haywards,0.273,545,545
22/08/2019 18:30:00,22/08/2019 19:00:00,38,Northward at Haywards,0.247,494,494
22/08/2019 19:00:00,22/08/2019 19:30:00,39,Northward at Haywards,0.242,483,483
22/08/2019 19:30:00,22/08/2019 20:00:00,40,Northward at Haywards,0.223,445,445
22/08/2019 20:00:00,22/08/2019 20:30:00,41,Northward at Haywards,0.218,436,436
22/08/2019 20:30:00,22/08/2019 21:00:00,42,Northward at Haywards,0.195,389,389
22/08/2019 21:00:00,22/08/2019 21:30:00,43,Northward at Haywards,0.140,279,279
22/08/2019 21:30:00,22/08/2019 22:00:00,44,Northward at Haywards,0.129,258,258
22/08/2019 22:00:00,22/08/2019 22:30:00,45,Northward at Haywards,0.085,170,170
22/08/2019 22:30:00,22/08/2019 23:00:00,46,Northward at Haywards,0.041,82,82
22/08/2019 23:00:00,22/08/2019 23:30:00,47,Northward at Haywards,0.017,33,33
22/08/2019 23:30:00,23/08/2019 00:00:00,48,Southward at Benmore,-0.014,-29,-29
